QPF
0.00 0.00 0.00 0.00 0.00 0.00 0.00 0.00 0.00 0.00 0.00 0.00 0.00 0.00 0.00 0.00 0.00 0.00 0.00 0.00 0.00 0.00 0.02 0.01 0.00 0.00 0.00 0.00 0.00 0.01 0.01 0.00 0.00 0.00 0.00 0.00 0.00 0.00 0.00 0.00 0.00 0.00 0.00
0.01 0.01 0.00 0.00 0.00 0.00 0.00 0.00 0.00 0.00 0.00 0.00 0.00 0.00 0.00 0.00 0.00 0.00 0.00 0.00 0.00 0.00 0.00 0.00 0.00 0.00 0.01 0.00 0.01 0.02 0.00 0.00 0.00 0.00 0.00 0.00 0.00 0.00 0.00 0.00 0.00 0.00 0.00
0.03 0.02 0.01 0.00 0.00 0.00 0.00 0.00 0.00 0.00 0.00 0.00 0.00 0.00 0.00 0.00 0.00 0.00 0.00 0.00 0.00 0.00 0.00 0.00 0.00 0.00 0.00 0.00 0.03 0.02 0.01 0.01 0.00 0.00 0.00 0.00 0.00 0.00 0.00 0.00 0.00 0.00 0.00
0.04 0.03 0.02 0.00 0.00 0.00 0.00 0.00 0.00 0.00 0.00 0.00 0.00 0.00 0.00 0.00 0.00 0.00 0.00 0.00 0.00 0.00 0.00 0.02 0.02 0.00 0.00 0.02 0.06 0.02 0.00 0.00 0.00 0.00 0.00 0.00 0.00 0.00 0.00 0.00 0.00 0.00 0.00
0.05 0.03 0.05 0.06 0.03 0.01 0.01 0.00 0.00 0.00 0.00 0.00 0.00 0.00 0.00 0.00 0.00 0.00 0.00 0.00 0.00 0.00 0.00 0.02 0.04 0.01 0.00 0.02 0.04 0.01 0.00 0.00 0.00 0.00 0.00 0.00 0.00 0.00 0.00 0.00 0.00 0.00 0.00
0.06 0.05 0.03 0.08 0.08 0.04 0.02 0.00 0.00 0.00 0.00 0.00 0.00 0.00 0.00 0.00 0.00 0.00 0.00 0.00 0.00 0.00 0.00 0.00 0.02 0.00 0.00 0.01 0.04 0.00 0.00 0.00 0.00 0.00 0.00 0.00 0.00 0.00 0.00 0.00 0.00 0.00 0.00
0.02 0.06 0.05 0.03 0.06 0.07 0.03 0.01 0.00 0.00 0.00 0.00 0.00 0.00 0.00 0.00 0.00 0.00 0.00 0.00 0.00 0.00 0.00 0.01 0.00 0.00 0.00 0.01 0.03 0.00 0.00 0.00 0.00 0.00 0.00 0.00 0.00 0.00 0.00 0.00 0.00 0.00 0.00
0.02 0.02 0.03 0.03 0.03 0.05 0.07 0.03 0.01 0.00 0.00 0.00 0.00 0.00 0.00 0.00 0.00 0.00 0.00 0.00 0.00 0.00 0.00 0.00 0.01 0.01 0.00 0.00 0.00 0.00 0.00 0.00 0.00 0.00 0.00 0.00 0.00 0.00 0.00 0.00 0.00 0.00 0.00
0.02 0.04 0.03 0.03 0.05 0.05 0.04 0.04 0.03 0.02 0.00 0.00 0.00 0.00 0.00 0.00 0.00 0.00 0.00 0.00 0.00 0.00 0.00 0.00 0.00 0.01 0.01 0.00 0.00 0.00 0.00 0.00 0.00 0.00 0.00 0.00 0.00 0.00 0.00 0.00 0.00 0.00 0.00
0.03 0.03 0.03 0.03 0.04 0.06 0.04 0.04 0.04 0.10 0.16 0.07 0.00 0.00 0.00 0.00 0.00 0.00 0.00 0.00 0.00 0.00 0.00 0.00 0.00 0.00 0.00 0.00 0.00 0.00 0.00 0.00 0.00 0.00 0.00 0.00 0.00 0.00 0.00 0.00 0.00 0.00 0.00
0.03 0.03 0.03 0.04 0.04 0.03 0.04 0.03 0.04 0.05 0.16 0.30 0.13 0.01 0.00 0.00 0.00 0.00 0.00 0.00 0.00 0.00 0.00 0.00 0.00 0.00 0.00 0.00 0.00 0.00 0.00 0.00 0.00 0.00 0.00 0.00 0.00 0.00 0.00 0.00 0.00 0.00 0.00
0.05 0.04 0.03 0.03 0.04 0.04 0.04 0.04 0.05 0.05 0.06 0.09 0.13 0.10 0.02 0.00 0.00 0.00 0.00 0.00 0.00 0.00 0.00 0.00 0.00 0.00 0.00 0.00 0.00 0.00 0.00 0.00 0.00 0.00 0.00 0.00 0.00 0.00 0.00 0.00 0.00 0.00 0.00
0.04 0.02 0.03 0.02 0.03 0.03 0.04 0.06 0.05 0.04 0.04 0.03 0.04 0.02 0.00 0.00 0.00 0.00 0.00 0.00 0.00 0.00 0.00 0.00 0.00 0.00 0.00 0.00 0.00 0.00 0.00 0.00 0.00 0.00 0.00 0.00 0.00 0.00 0.00 0.00 0.00 0.00 0.00
0.05 0.05 0.03 0.03 0.02 0.03 0.03 0.03 0.03 0.03 0.04 0.06 0.04 0.02 0.01 0.00 0.00 0.00 0.00 0.00 0.00 0.00 0.00 0.00 0.00 0.00 0.00 0.00 0.00 0.00 0.00 0.00 0.00 0.00 0.00 0.00 0.00 0.00 0.00 0.00 0.00 0.00 0.00
0.02 0.03 0.03 0.02 0.03 0.03 0.03 0.02 0.00 0.01 0.01 0.02 0.03 0.06 0.04 0.00 0.00 0.00 0.00 0.00 0.00 0.00 0.00 0.00 0.00 0.00 0.00 0.00 0.00 0.00 0.00 0.00 0.00 0.00 0.00 0.00 0.00 0.00 0.00 0.00 0.00 0.00 0.00
0.00 0.00 0.01 0.00 0.01 0.01 0.02 0.02 0.01 0.01 0.01 0.00 0.00 0.01 0.03 0.02 0.00 0.01 0.01 0.00 0.00 0.00 0.00 0.00 0.00 0.00 0.00 0.00 0.00 0.00 0.00 0.00 0.00 0.00 0.00 0.00 0.00 0.00 0.00 0.00 0.00 0.00 0.00
0.01 0.00 0.00 0.00 0.00 0.00 0.00 0.01 0.02 0.02 0.02 0.02 0.01 0.00 0.00 0.01 0.01 0.01 0.01 0.01 0.01 0.00 0.00 0.00 0.00 0.00 0.00 0.00 0.00 0.00 0.00 0.00 0.00 0.00 0.00 0.00 0.00 0.00 0.00 0.00 0.00 0.00 0.00
0.03 0.00 0.00 0.00 0.00 0.00 0.00 0.00 0.00 0.01 0.01 0.02 0.01 0.00 0.00 0.01 0.01 0.01 0.00 0.01 0.01 0.01 0.01 0.01 0.00 0.00 0.00 0.00 0.00 0.00 0.00 0.00 0.00 0.00 0.00 0.00 0.00 0.00 0.00 0.00 0.00 0.00 0.00
0.02 0.00 0.00 0.00 0.00 0.00 0.00 0.00 0.00 0.00 0.01 0.01 0.01 0.01 0.01 0.00 0.01 0.01 0.01 0.01 0.01 0.01 0.00 0.00 0.00 0.00 0.00 0.00 0.00 0.00 0.00 0.00 0.00 0.00 0.00 0.00 0.00 0.00 0.00 0.00 0.00 0.00 0.00
0.00 0.00 0.00 0.00 0.00 0.00 0.00 0.00 0.00 0.00 0.00 0.00 0.01 0.01 0.01 0.01 0.01 0.01 0.02 0.01 0.01 0.01 0.02 0.01 0.00 0.00 0.00 0.00 0.00 0.00 0.00 0.00 0.00 0.00 0.00 0.00 0.00 0.00 0.00 0.00 0.00 0.00 0.00
0.00 0.00 0.00 0.00 0.00 0.01 0.00 0.01 0.01 0.01 0.01 0.00 0.00 0.00 0.00 0.00 0.01 0.00 0.00 0.00 0.01 0.01 0.01 0.01 0.00 0.00 0.00 0.00 0.00 0.00 0.00 0.00 0.00 0.00 0.00 0.00 0.00 0.00 0.00 0.00 0.00 0.00 0.00
0.00 0.00 0.00 0.00 0.00 0.00 0.01 0.01 0.01 0.01 0.01 0.01 0.00 0.00 0.00 0.00 0.00 0.00 0.00 0.00 0.01 0.01 0.01 0.01 0.01 0.00 0.00 0.00 0.00 0.01 0.01 0.01 0.01 0.00 0.00 0.00 0.00 0.00 0.00 0.00 0.00 0.00 0.00
0.01 0.00 0.00 0.00 0.00 0.00 0.00 0.00 0.00 0.00 0.01 0.00 0.00 0.00 0.00 0.00 0.00 0.00 0.00 0.00 0.00 0.02 0.04 0.04 0.01 0.00 0.00 0.00 0.00 0.00 0.01 0.02 0.01 0.00 0.01 0.03 0.02 0.02 0.01 0.01 0.00 0.00 0.00
0.00 0.00 0.00 0.00 0.00 0.00 0.00 0.00 0.00 0.00 0.00 0.00 0.00 0.00 0.00 0.00 0.01 0.00 0.00 0.00 0.00 0.00 0.01 0.03 0.04 0.04 0.04 0.02 0.00 0.01 0.02 0.05 0.07 0.03 0.01 0.03 0.02 0.02 0.01 0.01 0.00 0.00 0.00
0.00 0.00 0.00 0.00 0.00 0.00 0.00 0.00 0.00 0.00 0.00 0.00 0.00 0.00 0.00 0.00 0.01 0.01 0.00 0.00 0.00 0.00 0.01 0.02 0.01 0.04 0.08 0.07 0.03 0.03 0.06 0.04 0.05 0.04 0.03 0.05 0.06 0.06 0.06 0.04 0.02 0.00 0.00
0.00 0.00 0.00 0.00 0.00 0.00 0.00 0.00 0.00 0.00 0.00 0.00 0.00 0.00 0.00 0.00 0.00 0.00 0.00 0.00 0.00 0.00 0.00 0.00 0.00 0.02 0.05 0.07 0.08 0.02 0.03 0.06 0.07 0.07 0.05 0.07 0.08 0.09 0.10 0.05 0.02 0.01 0.00
MSLP
1014.37 1014.61 1014.80 1015.09 1015.57 1016.05 1016.41 1016.86 1017.16 1017.53 1017.97 1018.09 1018.35 1018.93 1019.08 1019.26 1019.59 1019.86 1019.98 1020.14 1020.32 1020.54 1020.83 1021.07 1021.31 1021.60 1021.84 1022.00 1022.42 1022.70 1022.87 1023.13 1023.43 1023.54 1023.60 1023.81 1024.01 1024.26 1024.31 1024.41 1024.49 1024.55 1024.65
1013.71 1014.26 1014.75 1014.93 1015.33 1015.74 1016.22 1016.60 1016.99 1017.47 1017.91 1018.19 1018.77 1018.84 1019.05 1019.27 1019.57 1019.87 1019.98 1020.20 1020.39 1020.61 1020.79 1021.06 1021.11 1021.62 1022.06 1022.22 1022.53 1022.78 1023.04 1023.33 1023.56 1023.75 1023.90 1024.17 1024.45 1024.64 1024.73 1024.72 1024.78 1024.84 1024.92
1013.08 1013.63 1014.24 1014.76 1014.97 1015.41 1016.03 1016.48 1016.94 1017.38 1017.89 1018.07 1018.79 1018.82 1018.96 1019.23 1019.50 1019.92 1020.06 1020.36 1020.63 1020.73 1020.86 1021.08 1021.24 1021.68 1022.07 1022.22 1022.38 1022.80 1023.14 1023.47 1023.74 1023.91 1024.08 1024.43 1024.60 1024.82 1025.04 1025.12 1025.14 1025.16 1025.19
1012.29 1013.09 1013.73 1014.25 1014.57 1015.07 1015.65 1016.27 1016.73 1017.31 1017.72 1017.95 1018.57 1018.92 1018.94 1019.20 1019.54 1019.91 1020.08 1020.42 1020.71 1020.72 1020.96 1021.09 1021.34 1021.79 1022.06 1022.19 1022.28 1022.82 1023.32 1023.65 1024.03 1024.16 1024.40 1024.68 1024.75 1024.96 1025.09 1025.25 1025.35 1025.36 1025.43
1011.87 1012.50 1013.22 1013.66 1014.06 1014.62 1015.15 1015.77 1016.46 1016.83 1017.41 1017.79 1018.01 1018.84 1019.22 1019.37 1019.55 1019.82 1020.22 1020.41 1020.72 1020.92 1021.18 1021.19 1021.48 1021.70 1021.82 1022.15 1022.61 1022.92 1023.36 1023.81 1024.08 1024.28 1024.65 1024.88 1025.03 1025.15 1025.27 1025.44 1025.49 1025.53 1025.62
1011.41 1012.00 1012.70 1013.37 1013.84 1014.44 1014.94 1015.38 1016.02 1016.54 1016.87 1017.43 1018.16 1019.04 1019.35 1019.46 1019.73 1019.91 1020.08 1020.50 1020.72 1020.97 1021.11 1021.30 1021.65 1021.87 1021.94 1022.12 1022.38 1022.75 1023.21 1023.74 1024.06 1024.31 1024.61 1024.89 1025.10 1025.24 1025.41 1025.54 1025.66 1025.74 1025.82
1010.67 1011.22 1012.05 1012.76 1013.49 1013.93 1014.39 1014.69 1015.40 1016.01 1016.89 1017.19 1018.24 1019.22 1019.89 1020.02 1020.06 1020.18 1020.23 1020.49 1020.86 1021.00 1021.18 1021.38 1021.61 1021.92 1022.03 1022.13 1022.51 1022.70 1023.18 1023.59 1023.92 1024.26 1024.58 1024.88 1025.08 1025.23 1025.43 1025.63 1025.77 1025.87 1025.99
1009.83 1010.68 1011.29 1012.10 1012.70 1013.46 1014.01 1014.57 1014.96 1015.55 1016.33 1016.65 1017.60 1018.92 1020.17 1020.65 1020.53 1020.54 1020.48 1020.57 1020.94 1021.02 1021.31 1021.35 1021.51 1021.69 1022.03 1022.22 1022.71 1022.88 1023.19 1023.47 1023.68 1024.09 1024.50 1024.89 1025.18 1025.30 1025.43 1025.59 1025.74 1025.85 1025.99
1009.15 1009.69 1010.74 1011.40 1012.22 1012.55 1013.47 1013.74 1014.51 1014.75 1015.37 1016.22 1016.37 1017.08 1019.27 1019.98 1020.56 1020.91 1020.91 1020.76 1020.87 1021.06 1021.36 1021.54 1021.62 1021.62 1021.80 1022.08 1022.36 1022.81 1023.18 1023.44 1023.53 1023.81 1024.30 1024.70 1024.98 1025.18 1025.38 1025.64 1025.84 1026.00 1026.14
1008.85 1009.33 1009.74 1010.66 1011.46 1012.15 1012.70 1013.32 1014.04 1014.18 1014.83 1015.83 1016.43 1016.44 1016.90 1018.05 1019.54 1020.88 1020.99 1020.86 1020.89 1020.95 1021.01 1021.51 1021.64 1021.58 1021.72 1022.02 1022.25 1022.52 1022.86 1023.21 1023.40 1023.54 1023.96 1024.39 1024.78 1025.05 1025.23 1025.37 1025.57 1025.78 1025.96
1008.61 1009.08 1009.46 1010.12 1010.79 1011.54 1012.00 1012.51 1013.08 1014.02 1014.46 1015.38 1015.46 1016.33 1016.78 1017.71 1018.23 1019.26 1020.32 1020.77 1021.01 1020.92 1020.98 1020.72 1021.17 1021.48 1021.59 1021.94 1022.17 1022.40 1022.64 1022.97 1023.17 1023.27 1023.57 1023.96 1024.38 1024.72 1024.93 1025.20 1025.41 1025.64 1025.98
1008.26 1008.69 1009.29 1009.86 1010.46 1011.00 1011.52 1012.06 1012.43 1013.21 1013.91 1014.53 1014.92 1015.38 1016.17 1016.55 1017.47 1018.30 1019.35 1020.16 1020.39 1020.69 1020.79 1021.09 1021.01 1021.28 1021.44 1021.71 1021.93 1022.16 1022.39 1022.68 1022.85 1022.98 1023.20 1023.47 1023.89 1024.39 1024.70 1024.98 1025.21 1025.41 1025.70
1007.84 1008.25 1008.91 1009.52 1010.11 1010.59 1011.13 1011.67 1012.26 1012.96 1013.23 1013.77 1014.39 1015.03 1015.41 1015.67 1016.38 1017.23 1018.03 1019.36 1019.92 1020.41 1020.60 1020.70 1020.86 1020.99 1021.08 1021.34 1021.59 1021.72 1022.08 1022.36 1022.44 1022.60 1022.87 1022.94 1023.27 1023.82 1024.34 1024.76 1025.03 1025.27 1025.48
1007.20 1007.71 1008.41 1009.11 1009.72 1010.20 1010.74 1011.28 1011.71 1012.33 1012.94 1013.39 1013.98 1014.59 1014.77 1015.18 1015.91 1016.33 1017.05 1018.27 1019.42 1019.94 1020.26 1019.95 1020.13 1020.43 1020.49 1020.62 1020.80 1021.24 1021.60 1021.91 1022.17 1022.20 1022.33 1022.63 1022.79 1023.24 1023.79 1024.32 1024.82 1025.17 1025.40
1006.90 1007.64 1008.26 1008.93 1009.51 1009.97 1010.35 1010.90 1011.35 1011.85 1012.51 1013.15 1013.55 1014.19 1014.62 1014.99 1015.40 1015.77 1016.21 1016.94 1017.70 1019.17 1019.61 1019.64 1020.06 1019.76 1019.89 1020.33 1020.46 1020.92 1021.20 1021.29 1021.55 1021.88 1021.89 1022.04 1022.35 1022.71 1023.25 1023.85 1024.42 1024.80 1025.12
1007.14 1007.69 1008.19 1008.80 1009.25 1009.86 1010.29 1010.65 1011.15 1011.58 1012.10 1012.83 1013.36 1013.97 1014.41 1014.82 1015.07 1015.58 1016.09 1016.37 1016.92 1017.57 1018.36 1018.75 1018.99 1018.87 1019.08 1019.51 1019.78 1020.24 1020.43 1020.80 1021.08 1021.32 1021.64 1021.81 1021.97 1022.13 1022.50 1023.05 1023.69 1024.32 1024.70
1007.70 1008.02 1008.15 1008.49 1009.15 1009.72 1010.09 1010.62 1010.89 1011.23 1011.70 1012.34 1012.92 1013.54 1013.99 1014.38 1014.86 1015.13 1015.61 1016.07 1016.51 1016.94 1017.48 1017.89 1018.10 1018.46 1019.08 1019.15 1019.40 1019.71 1019.98 1020.21 1020.47 1020.70 1020.93 1021.31 1021.65 1021.88 1022.05 1022.40 1022.88 1023.40 1023.90
1008.15 1008.52 1008.78 1008.58 1009.14 1009.63 1010.18 1010.58 1010.71 1010.93 1011.40 1011.91 1012.46 1013.09 1013.51 1014.12 1014.59 1014.82 1015.13 1015.45 1015.86 1016.15 1016.76 1017.32 1017.73 1018.23 1018.40 1018.60 1018.97 1019.55 1019.56 1019.84 1020.04 1020.04 1020.29 1020.66 1021.01 1021.32 1021.63 1021.96 1022.36 1022.77 1023.29
1009.28 1009.20 1009.41 1009.20 1009.46 1009.91 1010.23 1010.57 1010.62 1010.82 1011.19 1011.71 1012.22 1012.58 1012.85 1013.49 1013.91 1014.31 1014.72 1015.00 1015.29 1015.60 1016.18 1016.60 1017.08 1017.64 1018.17 1018.42 1018.95 1019.18 1019.42 1019.53 1019.34 1019.57 1019.69 1019.91 1020.23 1020.65 1021.08 1021.49 1021.96 1022.34 1022.75
1010.90 1010.12 1010.35 1010.02 1010.06 1010.33 1010.45 1010.57 1010.48 1010.67 1011.05 1011.43 1011.73 1012.24 1012.47 1012.72 1013.34 1013.74 1014.16 1014.50 1014.85 1015.34 1015.70 1016.01 1016.55 1017.07 1017.48 1018.02 1018.31 1018.88 1019.33 1019.28 1019.02 1019.19 1019.39 1019.42 1019.63 1020.15 1020.48 1020.90 1021.39 1022.01 1022.45
1012.12 1011.50 1011.14 1010.81 1010.98 1011.29 1011.22 1011.04 1010.75 1010.63 1010.79 1011.11 1011.42 1011.75 1012.07 1012.52 1012.78 1013.14 1013.60 1013.89 1014.25 1014.52 1014.78 1015.08 1015.61 1016.30 1016.79 1017.48 1017.76 1017.77 1018.28 1018.49 1018.66 1019.02 1019.07 1018.98 1019.14 1019.45 1019.93 1020.18 1020.74 1021.30 1021.81
1013.50 1013.10 1011.82 1011.63 1011.76 1011.56 1011.57 1011.38 1011.29 1011.07 1011.01 1010.93 1011.04 1011.40 1011.65 1012.00 1012.42 1012.60 1012.86 1013.15 1013.50 1013.75 1013.96 1014.15 1014.51 1014.90 1015.07 1015.59 1016.23 1016.74 1017.48 1018.39 1018.72 1018.10 1018.38 1018.52 1018.61 1018.77 1019.22 1019.30 1019.78 1020.57 1021.24
1013.79 1012.72 1012.28 1012.50 1012.39 1012.05 1011.78 1011.67 1011.60 1011.41 1011.21 1011.05 1010.91 1011.03 1011.21 1011.50 1011.80 1012.16 1012.41 1012.61 1012.83 1012.95 1012.92 1013.07 1013.08 1013.17 1013.67 1014.26 1015.02 1015.73 1016.34 1016.77 1016.55 1016.88 1017.32 1017.80 1018.22 1018.29 1018.72 1019.03 1019.16 1019.78 1020.52
1013.81 1013.20 1012.80 1012.96 1012.86 1012.50 1012.16 1011.89 1011.64 1011.50 1011.41 1011.10 1011.10 1010.94 1010.85 1011.01 1011.26 1011.55 1011.75 1011.84 1011.98 1012.12 1012.27 1012.42 1012.38 1012.34 1012.46 1012.86 1013.16 1013.41 1014.18 1015.22 1016.54 1016.84 1017.00 1017.53 1017.83 1017.76 1018.23 1018.84 1018.86 1019.20 1019.82
1013.48 1013.00 1013.45 1013.19 1012.64 1012.21 1012.17 1011.91 1011.54 1011.43 1011.27 1010.95 1010.92 1010.86 1010.69 1010.71 1010.71 1011.01 1011.21 1011.24 1011.30 1011.30 1011.35 1011.36 1011.33 1011.39 1011.54 1011.80 1012.33 1013.17 1014.20 1015.28 1015.87 1016.31 1016.54 1016.87 1017.58 1017.81 1018.12 1018.50 1018.73 1018.81 1019.28
1013.82 1013.98 1013.62 1012.91 1012.64 1012.26 1012.33 1012.04 1011.42 1011.34 1011.24 1011.00 1010.70 1010.47 1010.37 1010.26 1010.31 1010.50 1010.65 1010.71 1010.69 1010.75 1010.92 1010.95 1010.99 1011.02 1011.03 1011.08 1011.29 1011.71 1012.75 1013.79 1014.77 1015.76 1015.82 1016.49 1017.16 1017.67 1018.31 1018.05 1018.30 1018.51 1018.73
Thickness
5663 5664 5665 5667 5668 5669 5670 5669 5670 5669 5670 5670 5672 5674 5674 5675 5675 5674 5675 5676 5676 5676 5676 5675 5675 5675 5674 5674 5672 5671 5671 5671 5669 5668 5668 5667 5665 5663 5663 5662 5660 5659 5658
5659 5658 5659 5660 5661 5662 5663 5664 5664 5663 5663 5663 5663 5667 5668 5669 5670 5669 5671 5671 5671 5671 5671 5671 5672 5670 5667 5668 5667 5665 5665 5664 5663 5662 5662 5661 5659 5658 5657 5656 5655 5654 5653
5655 5655 5654 5654 5655 5656 5655 5657 5657 5657 5656 5657 5655 5660 5661 5662 5663 5663 5664 5665 5664 5665 5665 5665 5666 5664 5662 5663 5663 5661 5659 5657 5656 5656 5655 5654 5653 5652 5650 5650 5649 5649 5647
5651 5649 5649 5649 5649 5650 5649 5650 5651 5650 5649 5652 5649 5651 5654 5655 5656 5656 5657 5657 5657 5659 5659 5660 5660 5658 5657 5658 5658 5655 5652 5651 5649 5649 5648 5647 5647 5645 5645 5643 5643 5642 5641
5643 5643 5643 5643 5642 5643 5644 5645 5644 5645 5643 5644 5646 5643 5646 5647 5649 5649 5648 5650 5651 5652 5652 5654 5653 5653 5654 5652 5651 5648 5647 5644 5643 5642 5641 5639 5639 5638 5638 5636 5636 5635 5634
5636 5636 5636 5634 5634 5634 5636 5639 5638 5638 5639 5638 5637 5633 5636 5639 5640 5642 5642 5642 5643 5644 5645 5646 5646 5646 5646 5646 5646 5643 5642 5639 5637 5636 5634 5633 5632 5632 5631 5630 5629 5628 5626
5631 5630 5630 5629 5627 5628 5630 5634 5632 5631 5627 5632 5627 5623 5622 5627 5630 5633 5634 5635 5633 5636 5637 5638 5639 5638 5638 5639 5638 5636 5635 5633 5631 5629 5627 5626 5625 5625 5623 5622 5621 5619 5618
5626 5623 5622 5622 5623 5621 5623 5623 5625 5625 5623 5626 5623 5613 5608 5612 5617 5621 5624 5627 5626 5628 5628 5630 5631 5632 5631 5632 5630 5628 5627 5625 5625 5623 5621 5618 5617 5617 5615 5614 5613 5611 5610
5618 5618 5615 5615 5614 5618 5615 5619 5618 5622 5621 5619 5624 5619 5603 5608 5605 5607 5611 5616 5618 5620 5620 5620 5622 5624 5625 5624 5624 5621 5619 5618 5618 5617 5614 5612 5610 5609 5608 5606 5604 5602 5600
5607 5607 5611 5609 5607 5608 5610 5611 5612 5616 5616 5610 5609 5615 5617 5611 5605 5601 5601 5606 5609 5612 5615 5614 5614 5616 5618 5617 5617 5617 5614 5610 5610 5610 5608 5605 5602 5601 5600 5599 5597 5595 5594
5593 5597 5599 5600 5600 5600 5604 5606 5608 5607 5609 5604 5606 5603 5604 5601 5603 5602 5599 5598 5598 5602 5605 5609 5608 5608 5609 5608 5608 5608 5606 5604 5603 5603 5601 5598 5595 5593 5592 5590 5589 5587 5584
5580 5585 5586 5588 5589 5591 5594 5597 5601 5601 5602 5601 5600 5595 5596 5601 5600 5596 5592 5594 5597 5594 5596 5598 5601 5601 5600 5600 5600 5599 5598 5596 5595 5595 5593 5592 5588 5584 5582 5580 5579 5577 5575
5569 5573 5574 5576 5578 5582 5584 5587 5589 5590 5594 5596 5595 5592 5593 5598 5598 5595 5594 5587 5588 5585 5588 5591 5592 5593 5593 5592 5591 5591 5590 5588 5587 5587 5585 5584 5582 5577 5573 5570 5568 5566 5563
5559 5560 5564 5566 5568 5572 5574 5577 5581 5583 5584 5585 5585 5586 5590 5592 5590 5592 5592 5585 5578 5579 5580 5589 5587 5586 5586 5587 5587 5584 5583 5580 5578 5578 5577 5574 5573 5571 5566 5560 5556 5553 5551
5544 5546 5549 5553 5556 5559 5565 5567 5571 5575 5575 5575 5578 5577 5580 5582 5583 5585 5586 5586 5585 5574 5577 5576 5576 5581 5581 5580 5580 5577 5576 5575 5572 5569 5568 5567 5564 5562 5558 5551 5544 5542 5539
5528 5533 5538 5541 5546 5548 5552 5557 5560 5564 5567 5567 5568 5568 5572 5572 5575 5575 5576 5578 5579 5577 5577 5576 5573 5577 5577 5575 5574 5571 5570 5567 5564 5562 5559 5556 5554 5553 5550 5544 5538 5532 5528
5511 5518 5526 5532 5534 5538 5542 5545 5551 5555 5558 5558 5559 5560 5562 5563 5565 5567 5568 5568 5569 5570 5573 5571 5571 5570 5566 5566 5564 5563 5561 5561 5558 5555 5551 5548 5544 5542 5539 5536 5530 5524 5519
5492 5500 5509 5520 5522 5526 5528 5532 5540 5545 5548 5549 5551 5552 5554 5553 5555 5558 5560 5561 5563 5565 5564 5566 5562 5559 5560 5558 5556 5554 5553 5550 5548 5547 5543 5539 5535 5532 5528 5524 5519 5513 5508
5472 5482 5491 5503 5509 5512 5517 5521 5528 5533 5537 5539 5540 5543 5547 5547 5550 5551 5552 5553 5554 5555 5554 5556 5556 5551 5549 5548 5545 5543 5542 5540 5541 5537 5533 5530 5526 5521 5515 5510 5504 5499 5495
5450 5470 5474 5484 5492 5497 5503 5510 5518 5523 5526 5529 5532 5533 5538 5541 5542 5543 5543 5545 5545 5544 5544 5546 5543 5542 5541 5538 5536 5534 5526 5527 5529 5526 5521 5519 5515 5508 5503 5497 5492 5485 5480
5432 5447 5459 5469 5474 5476 5486 5494 5504 5512 5517 5521 5523 5526 5529 5530 5533 5535 5535 5537 5538 5539 5540 5541 5541 5534 5532 5528 5526 5525 5523 5519 5518 5513 5508 5507 5503 5497 5490 5485 5480 5475 5471
5415 5427 5444 5452 5458 5467 5474 5482 5489 5498 5504 5511 5516 5517 5520 5522 5523 5526 5528 5530 5531 5532 5534 5535 5536 5533 5535 5531 5522 5518 5511 5503 5505 5506 5497 5495 5492 5491 5485 5481 5476 5468 5462
5403 5419 5430 5436 5444 5453 5463 5470 5477 5484 5491 5499 5506 5509 5512 5515 5515 5517 5519 5520 5523 5524 5527 5530 5534 5536 5532 5527 5518 5511 5505 5503 5509 5501 5492 5488 5483 5481 5478 5473 5469 5463 5456
5390 5404 5416 5422 5430 5439 5449 5457 5466 5473 5479 5486 5491 5498 5504 5507 5509 5509 5512 5515 5517 5519 5520 5520 5524 5527 5526 5523 5520 5517 5510 5502 5489 5487 5482 5477 5473 5473 5467 5462 5460 5455 5450
5385 5398 5399 5409 5422 5432 5439 5448 5457 5463 5470 5477 5482 5486 5493 5497 5500 5501 5504 5507 5510 5513 5513 5515 5517 5519 5518 5516 5512 5503 5494 5484 5480 5476 5472 5468 5463 5460 5455 5454 5451 5447 5443
5375 5380 5389 5403 5412 5423 5428 5437 5448 5454 5460 5468 5474 5479 5484 5490 5492 5494 5497 5500 5504 5505 5505 5507 5509 5509 5508 5508 5506 5502 5493 5482 5473 5464 5465 5459 5453 5449 5445 5447 5443 5440 5436